Location: ????????
(55.3155°N, 39.2900°E)
Time: 02:34:04
(UTC+00:00)

Cosmos 2056 Rocket - Pass Details

Date: 14 April 2024
Orbit: 739 x 799 km, 74.0° (Epoch: 18 May)

Event Time Altitude Azimuth Distance (km) Brightness Sun altitude
Rises 00:31:07 0° 332° (NNW) 3,282 7.0 -14.3°
Reaches altitude 10° 00:33:30 10° 334° (NNW) 2,358 6.2 -14.0°
Maximum altitude 00:38:54 79° 61° (ENE) 814 3.7 -13.5°
Drops below altitude 10° 00:44:19 10° 149° (SSE) 2,368 6.0 -12.9°
Sets 00:46:43 0° 150° (SSE) 3,297 6.7 -12.6°
